Main page
METAR-TAF:

METAR-TAF

Airports :

Bob Sikes Airport

Crestview, Florida, United States

latitude: 30-46-20N, longitude: 086-31-12W, elevation: 213 ft

Current weather observation

The report was made 1 hour and 3 minutes ago, at 07:53 UTC
Wind 7 mph from the East/Southeast
Temperature 66°F
Humidity 83%
Pressure 30.09 in. Hg
Visibility: 10 miles
Clear sky

METAR: KCEW 180753Z AUTO 12006KT 10SM CLR 19/16 A3009 RMK AO2 SLP185 T01890156

Time: 03:56 (08:56 UTC)


TAF: missing

Weather observations and forecasts of more than 4000 airports (METAR and TAF reports).

The available stations are represented by yellow and red dots on the map.

Hover mouse over dot to see the name of the station.

Then click to see weather observations and forecasts.

To change the map : click on the green buttons with a black cross to zoom in, on the green button with a dash to zoom out, or on the green arrows for adjacent maps.


METAR-TAF: